Regional Weather Roundup
Issued by NWS

Home | Current Version | Previous Version | Text Only | Print | Product List | Glossary Off
Versions: 1 2 3 4 5 6 7 8 9 10 11 12 13 14 15 16 17 18 19 20 21 22 23 24 25 26 27 28 29 30 31 32 33 34 35 36 37 38 39 40 41 42 43 44 45 46 47 48 49 50

000
ASUS43 KBIS 171210
RWRND

NORTH DAKOTA REGIONAL WEATHER ROUNDUP
NATIONAL WEATHER SERVICE BISMARCK ND
600 AM CST WED JAN 17 2018

NOTE: "FAIR" INDICATES FEW OR NO CLOUDS BELOW 12,000 FEET WITH NO
SIGNIFICANT WEATHER AND/OR OBSTRUCTIONS TO VISIBILITY.


NDZ001>003-009>011-017-171300-
NORTHWEST NORTH DAKOTA

CITY           SKY/WX    TMP DP  RH WIND       PRES   REMARKS
WILLISTON      CLEAR     14   5  67 SW10      30.10S WCI   1
6HR MIN TEMP:   2; 6HR MAX TEMP:  14;

MINOT          CLOUDY    20   8  60 SW24      29.99F WCI   3
MINOT AFB      CLOUDY    20   9  64 W22       29.96F WCI   3
$$

NDZ018>021-031>035-040>046-171300-
SOUTHWEST NORTH DAKOTA

CITY           SKY/WX    TMP DP  RH WIND       PRES   REMARKS
BISMARCK       CLEAR     -4  -9  79 SE3       30.13F
6HR MIN TEMP:  -4; 6HR MAX TEMP:   9;

DICKINSON      CLEAR     23  12  62 W16       30.08S WCI  10
GARRISON         N/A     11   2  67 W13       30.06F WCI  -4
6HR MIN TEMP:   0; 6HR MAX TEMP:  11;

HETTINGER ARPT CLEAR     15   4  61 W10       30.15S WCI   2
$$

NDZ004>008-012>016-024-026-027-054-171300-
NORTHEAST NORTH DAKOTA

CITY           SKY/WX    TMP DP  RH WIND       PRES   REMARKS
GRAND FORKS    FAIR       7   0  73 S14       30.06F WCI -10
GRND FRKS AFB  FAIR       8  -1  67 S9        30.05F WCI  -6
DEVILS LAKE    FAIR      10   2  69 SW16      30.00F WCI  -7
$$

NDZ022-023-025-028>030-036>039-047>053-171300-
SOUTHEAST NORTH DAKOTA

CITY           SKY/WX    TMP DP  RH WIND       PRES   REMARKS
FARGO          FAIR       6  -1  73 S16       30.17F WCI -12
6HR MIN TEMP:   4; 6HR MAX TEMP:   6;

JAMESTOWN      CLOUDY     1  -3  83 S7        30.09F WCI -12
$$





USA.gov is the U.S. government's official web portal to all federal, state and local government web resources and services.